User: anonymous   Login
Location: Lourdes
(43.1000°N, 0.0500°W)
Time: 20:26:31
(UTC+00:00)
Language:

Sich 1 - Orbit

View from above orbital plane
View from above orbital plane
View from above satellite
View from above satellite

Ground track
Ground track

The orbit data is extracted from the following two-line orbital elements,

1 23657U 95046A   21055.51940051  .00000306  00000-0  31922-4 0  9995
2 23657  82.5242  73.7555 0020623 299.5964  60.3198 14.86250433377412
Epoch (UTC): 24 February 2021 12:27:56
Eccentricity: 0.0020623
inclination: 82.5242°
perigee height: 595 km
apogee height: 624 km
right ascension of ascending node: 73.7555°
argument of perigee: 299.5964°
revolutions per day: 14.86250433
mean anomaly at epoch: 60.3198°
orbit number at epoch: 37741

The dashed part of the orbit path shows where the satellite is in the earth's shadow,  

DLR